SCP
-0 -0 -0 0 0 0 0 -0 0 0 0 0 0 -0 0 0 0 0 0 0 0 0 0 0 0 0 0 0 0 0 0 0 0 0 0 0 0 0 0 0 0 0 0 0
-0 -0 0 0 0 0 0 0 0 0 0 0 0 0 0 0 0 0 0 0 0 0 0 0 0 0 0 0 0 0 0 0 0 0 0 0 0 0 -0 0 0 0 0 0
0 -0 -0 0 0 0 0 0 0 0 0 0 0 0 0 0 0 0 0 0 0 0 0 0 0 0 0 0 0 0 0 0 0 0 -0 0 0 0 0 0 0 0 0 0
0 0 0 0 0 0 -0 0 -0 -0 0 0 0 0 0 0 0 0 0 0 0 0 0 0 0 0 -0 -0 -0 0 0 0 0 -0 0 0 0 0 0 0 0 0 0 0
0 0 0 0 0 0 0 0 0 0 -0 0 0 0 0 0 0 0 0 0 0 0 0 -0 -0 -0 -0 -0 -0 -0 0 0 0 0 0 0 0 0 0 0 0 0 0 0
0 0 0 0 0 0 0 0 0 0 0 0 0 0 0 0 0 0 0 0 0 -0 0 -0 -0 -0 -0 0 -0 -0 0 0 0 -0 0 0 0 0 0 0 0 0 0 0
-0 -0 0 0 0 0 0 0 0 0 0 0 0 0 0 0 0 0 0 0 0 -0 -0 -0 -0 -0 -0 -0 -0 -0 0 0 0 0 0 0 0 0 0 0 0 0 0 0
0 0 0 0 0 0 0 0 0 0 0 0 0 0 0 0 -0 0 0 0 -0 0 -0 -0 -0 -0 -0 0 0 0 0 0 0 0 0 0 0 0 0 0 0 0 0 0
0 0 0 0 0 0 0 0 0 0 0 0 0 0 0 -0 -0 -0 -0 0 -0 -0 -0 0 0 0 -0 -0 0 0 0 0 -0 0 0 0 0 0 0 0 0 0 0 0
0 0 0 0 0 0 0 0 0 0 0 0 0 0 0 0 -0 -0 -0 -0 -0 -0 -0 -0 0 0 -0 -0 0 0 0 0 0 0 0 0 0 0 0 0 0 0 0 0
-0 0 0 0 0 0 0 0 0 0 0 0 0 0 0 0 0 0 0 0 -0 -0 -0 -0 -0 -0 -0 -0 0 0 0 0 0 0 0 0 0 0 0 0 0 0 0 0
0 0 0 0 0 0 0 0 0 0 0 0 0 0 0 0 0 0 0 0 0 0 0 0 0 -0 -0 -0 -0 -0 -0 0 0 0 0 0 0 0 0 0 0 0 0 0
0 0 0 0 0 0 0 0 0 0 0 0 0 0 0 0 0 0 0 0 0 0 0 0 -0 -0 -0 -0 -0 -0 0 0 0 0 0 0 0 0 0 0 0 0 0 0
0 0 0 0 0 0 0 0 0 0 0 -0 0 0 -0 0 0 0 0 0 0 0 0 0 0 0 0 -0 0 0 0 -0 -0 -0 0 0 0 0 0 0 0 0 0 0
-0 0 0 0 0 0 0 0 0 0 0 0 -0 -0 0 0 -0 -0 0 0 0 0 0 0 0 0 0 -0 -0 -0 -0 0 0 0 0 0 0 0 0 0 0 0 0 0
0 0 0 0 0 0 0 0 0 0 0 0 0 0 0 0 0 0 0 0 0 -0 0 0 0 0 0 0 -0 -0 0 0 0 0 0 0 0 0 0 0 0 0 0 0
0 0 0 0 0 0 0 0 0 -0 0 0 0 0 0 -0 -0 0 -0 0 -0 0 0 0 0 0 0 0 0 0 0 0 0 0 0 0 0 0 0 0 0 0 0 0
0 0 -0 0 0 0 0 -0 0 -0 -0 -0 0 0 0 0 0 0 0 0 0 0 0 0 0 0 0 0 0 0 0 0 0 0 0 0 0 0 0 0 0 0 0 0
0 0 0 0 0 0 0 0 0 0 0 -0 0 0 0 0 0 0 0 0 -0 0 -0 0 0 0 0 0 0 0 0 0 0 0 0 0 0 0 0 0 0 0 0 0
0 0 0 0 0 -0 0 0 0 0 0 -0 -0 0 0 0 0 0 0 0 -0 0 0 0 0 0 0 0 0 0 0 0 0 0 0 0 0 0 0 0 0 0 0 0
0 0 0 0 0 0 0 0 0 0 0 0 -0 0 0 0 0 0 0 0 0 0 0 0 0 0 0 0 0 0 0 0 0 0 0 0 0 0 0 0 0 0 0 0
0 0 0 0 0 0 0 0 0 0 0 0 -0 -0 0 0 0 0 -0 0 0 0 0 0 0 0 0 0 0 0 0 0 0 0 0 0 0 0 0 0 0 0 0 0
0 0 0 -0 0 0 0 0 0 0 0 0 0 0 0 0 0 0 0 0 0 0 0 0 0 0 0 0 0 0 0 0 0 0 0 0 0 0 0 0 0 0 0 0
0 0 0 -0 0 0 -0 0 -0 -0 0 0 0 0 0 0 0 -0 0 0 0 0 0 -0 0 0 0 0 0 0 0 0 0 0 0 0 0 0 0 0 0 0 0 0
0 0 -0 0 0 -0 -0 -0 0 0 0 0 0 -0 -0 -0 0 0 0 0 0 0 0 0 0 0 0 0 0 0 0 0 0 0 0 0 0 0 0 0 0 0 0 0
0 0 -0 -0 0 -0 -0 0 0 0 0 0 -0 -0 -0 0 0 0 0 0 0 0 0 0 0 0 0 0 0 0 0 0 0 0 0 0 0 0 0 0 0 0 0 0
0 0 -0 -0 0 -0 -0 0 0 0 0 0 0 0 0 0 0 0 0 0 0 0 0 0 0 0 0 0 0 0 0 -0 -0 0 0 0 0 0 0 0 0 0 0 0
Wind_Speed_500mb
34 41 35 30 25 29 37 8 14 27 29 31 30 29 34 32 33 34 44 26 52 43 37 39 44 45 39 30 19 15 20 19 13 9 13 17 14 23 22 16 13 5 4 9
36 41 14 20 16 16 23 27 30 28 25 27 24 28 40 36 23 20 39 44 49 39 37 31 32 28 18 11 13 22 23 22 15 13 8 6 3 2 18 21 23 25 22 16
25 34 39 9 20 24 20 19 23 17 14 28 23 30 40 49 32 39 27 33 36 32 22 27 19 9 11 22 23 20 17 14 17 17 16 11 10 15 15 11 9 14 17 20
19 23 10 1 7 7 16 8 15 15 13 10 16 18 27 30 22 27 33 37 35 29 25 15 9 16 21 21 20 13 13 15 9 9 12 11 17 18 12 8 17 22 20 18
13 10 11 6 11 6 9 13 8 9 13 13 14 17 20 19 10 19 28 27 28 17 21 29 27 13 19 21 16 18 16 17 18 23 17 16 17 18 17 18 19 20 20 22
33 11 6 6 8 13 10 3 4 17 17 18 13 3 5 7 8 19 27 29 9 27 12 17 13 15 15 16 18 17 16 19 16 19 17 18 17 20 21 26 26 26 30 32
15 6 8 12 9 10 8 7 8 10 20 13 11 10 14 10 20 26 21 13 14 12 14 17 18 20 17 15 12 16 13 12 14 15 17 20 24 24 23 26 27 31 36 38
13 13 4 13 13 7 4 1 5 18 16 12 14 15 17 15 12 14 17 18 11 14 17 11 16 11 8 11 12 14 14 12 13 16 16 18 21 22 25 28 30 33 37 41
5 10 20 14 13 7 12 11 8 16 8 13 12 12 24 26 25 24 20 18 15 14 14 13 16 14 11 11 13 15 13 13 13 14 18 23 25 28 31 33 34 37 38 40
12 17 15 19 15 13 15 14 11 16 3 5 4 18 19 18 20 22 19 15 14 14 13 15 14 15 23 12 15 15 14 17 19 23 23 25 30 33 38 38 37 37 40 40
32 22 21 5 14 20 16 14 20 9 9 4 6 25 27 25 22 18 15 16 15 17 17 15 14 13 13 18 16 15 15 19 26 31 36 34 33 37 36 31 31 26 32 35
15 18 20 50 14 21 20 19 16 18 17 16 15 13 14 15 21 25 25 24 18 16 15 14 19 20 22 23 26 29 30 30 33 32 33 37 30 28 27 23 26 25 22 18
33 36 21 7 12 16 18 24 24 24 21 19 22 19 18 19 23 17 19 21 23 21 20 23 27 27 28 27 35 38 28 36 30 24 25 23 21 21 23 23 25 21 17 12
33 20 36 18 24 26 24 28 30 24 22 23 22 24 24 18 19 21 21 21 23 22 23 27 24 22 19 20 28 27 11 20 27 18 23 28 24 25 18 21 27 24 25 22
22 22 22 19 28 24 28 30 32 29 28 30 25 24 28 27 20 33 23 26 23 28 27 27 21 18 16 16 16 16 19 23 21 18 22 21 23 28 22 26 25 24 20 26
24 24 26 24 30 29 32 37 37 37 32 32 23 31 28 25 26 26 26 29 23 27 33 23 21 18 15 18 19 20 23 27 32 35 23 25 26 24 31 28 32 25 26 31
30 31 33 33 33 36 38 40 5 31 41 37 39 32 30 31 27 23 27 30 27 26 22 24 20 17 17 22 22 22 22 24 21 21 24 27 28 26 33 36 35 26 29 30
30 31 37 33 32 40 41 31 41 53 42 29 34 26 28 28 25 26 29 31 28 28 28 25 24 22 24 22 23 21 21 24 26 25 25 28 34 36 34 43 37 34 37 40
30 31 32 35 35 38 34 38 39 26 46 42 23 30 35 34 34 34 35 34 35 35 32 27 35 35 36 29 28 24 23 27 28 31 34 36 39 39 41 45 48 46 43 46
27 25 29 35 38 37 44 36 39 33 24 25 29 49 44 40 37 37 35 31 46 36 30 28 38 41 39 35 28 29 28 29 31 35 38 39 41 42 45 49 53 58 53 47
45 30 38 42 34 40 41 38 37 45 42 38 47 38 45 41 35 37 36 37 36 40 34 36 35 31 29 26 29 33 29 29 31 33 40 44 46 50 47 53 61 58 57 53
60 48 45 53 46 47 41 39 31 46 35 42 45 61 41 46 51 48 43 42 34 33 40 40 41 41 39 40 31 29 33 35 36 39 44 44 43 46 51 55 60 67 73 79
53 52 52 61 50 47 38 33 32 29 39 34 39 48 32 47 34 37 46 48 44 46 29 40 41 44 44 39 39 40 38 39 43 44 44 49 55 58 60 62 67 74 69 63
57 47 46 43 44 43 35 33 38 45 42 42 45 61 50 36 34 38 49 40 45 48 43 59 44 44 44 42 40 37 35 41 40 47 48 44 43 47 57 54 39 31 29 33
24 6 23 34 50 36 30 29 35 38 40 36 31 21 46 40 49 45 39 29 26 37 37 45 45 43 45 37 28 32 41 39 35 29 25 25 28 34 30 25 24 27 25 22
5 11 25 32 30 33 22 20 20 16 16 20 38 42 39 43 47 30 13 24 26 33 38 22 16 40 30 28 33 33 23 14 10 19 26 28 25 19 24 29 30 29 26 22
28 28 38 36 25 21 18 19 24 26 24 29 33 47 25 30 29 42 26 34 18 16 27 25 14 24 30 16 10 14 21 24 26 28 30 31 30 27 24 19 18 17 15 13
Wind_Direction_500mb
321 307 325 19 5 2 331 8 310 332 332 7 12 352 347 339 3 53 91 103 96 99 107 114 126 139 145 150 166 207 223 184 169 152 196 213 206 191 197 192 164 129 182 197
311 305 263 87 39 348 345 11 354 345 18 10 8 15 12 1 52 123 114 125 118 118 130 127 126 130 148 203 226 149 144 140 142 175 129 94 124 165 198 212 205 204 209 208
304 332 312 50 348 1 348 358 338 1 12 357 18 15 15 13 104 133 118 118 126 140 149 143 151 185 223 146 147 142 169 184 212 186 171 184 237 270 225 215 226 228 226 237
289 324 340 349 204 337 315 320 324 326 337 353 343 27 21 34 30 149 146 137 143 150 148 163 204 160 146 160 165 176 154 193 210 200 250 203 225 261 270 238 245 256 261 255
282 317 227 180 360 11 357 316 1 324 317 317 291 298 43 38 92 113 130 135 132 132 139 153 172 144 204 191 166 186 191 212 207 206 207 211 219 238 243 263 270 264 258 245
281 271 357 147 56 116 112 312 37 344 344 342 2 228 149 103 118 139 137 133 131 151 181 179 151 206 193 186 204 201 202 204 205 200 209 217 230 240 249 253 262 256 264 272
317 292 119 79 18 156 283 0 50 331 310 42 21 35 128 133 135 134 135 133 160 169 145 163 181 185 186 197 196 185 192 190 205 219 221 231 236 244 253 257 258 257 257 258
306 313 299 71 344 316 56 340 322 301 331 346 132 146 151 166 178 218 239 224 167 165 177 191 201 206 242 205 199 196 203 206 208 223 237 252 254 257 261 268 270 274 275 277
319 270 265 194 178 199 210 228 282 281 317 316 174 181 177 174 178 173 170 178 190 200 204 218 197 215 232 227 206 209 212 209 224 239 247 252 265 276 281 282 283 283 286 285
260 263 281 232 213 208 220 227 227 280 323 312 281 178 183 193 197 208 206 202 198 212 216 218 225 224 216 195 202 204 217 233 244 258 271 278 277 279 280 279 281 286 287 290
292 284 300 20 231 238 210 214 234 237 243 212 216 175 182 186 192 193 193 201 201 204 208 216 214 219 229 217 220 228 245 259 262 267 275 280 275 283 287 280 282 283 281 297
259 280 150 272 209 210 203 235 215 235 215 210 221 217 204 213 189 185 185 183 186 196 208 212 212 220 228 230 238 238 241 255 268 281 284 280 287 279 279 264 277 281 289 307
261 272 257 277 282 264 251 215 228 220 223 215 226 235 230 212 200 206 200 200 197 205 218 224 227 231 234 242 248 245 259 268 275 284 285 292 288 285 277 280 289 292 279 289
285 256 256 247 249 256 232 225 225 223 230 235 234 239 252 230 261 225 220 212 219 218 229 236 251 228 216 233 247 284 262 259 289 276 276 270 284 274 276 268 268 270 271 271
270 278 273 264 269 240 232 223 228 224 231 236 254 260 222 243 245 225 230 230 247 236 233 236 245 248 238 253 242 263 266 277 280 266 271 279 269 275 270 266 263 271 253 264
256 264 259 245 249 254 240 226 221 232 237 242 241 244 242 227 226 237 245 237 227 244 221 241 251 250 247 257 257 254 261 261 262 276 271 262 263 255 259 256 258 250 263 273
276 272 268 250 245 246 249 244 332 314 234 236 243 245 217 238 230 226 218 231 223 231 241 243 232 243 251 244 247 256 258 269 265 276 276 264 273 271 267 262 260 262 268 260
263 266 268 258 251 258 267 276 240 272 281 247 241 226 218 222 227 219 220 226 235 237 235 226 236 241 239 243 255 258 256 258 267 264 271 267 268 261 267 273 268 262 263 266
265 266 268 266 258 260 253 253 241 262 236 239 238 223 220 223 229 221 214 236 237 239 224 237 236 239 239 236 245 252 259 262 265 269 272 271 270 273 270 271 267 262 264 267
325 287 265 271 272 272 267 264 225 235 239 251 198 237 221 225 226 230 238 236 220 230 235 238 241 237 247 258 251 249 257 264 269 275 278 278 279 279 273 271 266 264 258 260
329 289 294 323 290 284 287 270 260 242 250 229 246 242 228 221 232 236 239 240 239 243 251 238 239 226 237 247 250 251 248 259 265 271 277 282 285 287 288 283 279 276 279 269
314 303 262 294 306 292 285 281 265 228 236 258 272 238 239 230 230 239 241 247 246 254 244 232 241 248 237 234 243 247 250 258 266 273 280 284 282 281 283 283 283 283 277 270
298 289 271 260 281 295 283 282 279 254 254 226 224 235 237 230 230 243 238 236 238 247 247 234 244 246 247 244 245 245 251 263 271 272 273 274 276 283 291 297 301 301 285 273
302 284 262 237 274 285 279 286 283 276 270 243 260 262 239 243 242 243 258 253 264 234 273 230 241 247 254 254 251 252 263 263 262 261 264 274 290 302 309 316 325 334 332 311
312 192 204 270 288 280 283 284 287 276 255 248 234 231 210 236 241 254 261 255 267 243 245 230 240 249 251 248 234 238 244 250 256 272 299 325 335 336 330 341 4 16 14 19
221 281 299 291 300 269 280 290 294 254 245 233 232 239 228 226 232 265 278 240 267 245 225 245 231 229 217 214 218 223 227 251 332 7 1 360 4 20 30 29 22 16 12 6
341 301 311 313 320 317 269 258 270 267 260 257 261 261 255 241 243 259 286 298 274 227 210 235 239 213 208 205 15 43 17 15 35 47 48 40 33 24 21 11 5 357 353 2
Wind_Speed_850mb
34 41 35 30 25 29 37 8 14 27 29 31 30 29 34 32 33 34 44 26 52 43 37 39 44 45 39 30 19 15 20 19 13 9 13 17 14 23 22 16 13 5 4 9
36 41 14 20 16 16 23 27 30 28 25 27 24 28 40 36 23 20 39 44 49 39 37 31 32 28 18 11 13 22 23 22 15 13 8 6 3 2 18 21 23 25 22 16
25 34 39 9 20 24 20 19 23 17 14 28 23 30 40 49 32 39 27 33 36 32 22 27 19 9 11 22 23 20 17 14 17 17 16 11 10 15 15 11 9 14 17 20
19 23 10 1 7 7 16 8 15 15 13 10 16 18 27 30 22 27 33 37 35 29 25 15 9 16 21 21 20 13 13 15 9 9 12 11 17 18 12 8 17 22 20 18
13 10 11 6 11 6 9 13 8 9 13 13 14 17 20 19 10 19 28 27 28 17 21 29 27 13 19 21 16 18 16 17 18 23 17 16 17 18 17 18 19 20 20 22
33 11 6 6 8 13 10 3 4 17 17 18 13 3 5 7 8 19 27 29 9 27 12 17 13 15 15 16 18 17 16 19 16 19 17 18 17 20 21 26 26 26 30 32
15 6 8 12 9 10 8 7 8 10 20 13 11 10 14 10 20 26 21 13 14 12 14 17 18 20 17 15 12 16 13 12 14 15 17 20 24 24 23 26 27 31 36 38
13 13 4 13 13 7 4 1 5 18 16 12 14 15 17 15 12 14 17 18 11 14 17 11 16 11 8 11 12 14 14 12 13 16 16 18 21 22 25 28 30 33 37 41
5 10 20 14 13 7 12 11 8 16 8 13 12 12 24 26 25 24 20 18 15 14 14 13 16 14 11 11 13 15 13 13 13 14 18 23 25 28 31 33 34 37 38 40
12 17 15 19 15 13 15 14 11 16 3 5 4 18 19 18 20 22 19 15 14 14 13 15 14 15 23 12 15 15 14 17 19 23 23 25 30 33 38 38 37 37 40 40
32 22 21 5 14 20 16 14 20 9 9 4 6 25 27 25 22 18 15 16 15 17 17 15 14 13 13 18 16 15 15 19 26 31 36 34 33 37 36 31 31 26 32 35
15 18 20 50 14 21 20 19 16 18 17 16 15 13 14 15 21 25 25 24 18 16 15 14 19 20 22 23 26 29 30 30 33 32 33 37 30 28 27 23 26 25 22 18
33 36 21 7 12 16 18 24 24 24 21 19 22 19 18 19 23 17 19 21 23 21 20 23 27 27 28 27 35 38 28 36 30 24 25 23 21 21 23 23 25 21 17 12
33 20 36 18 24 26 24 28 30 24 22 23 22 24 24 18 19 21 21 21 23 22 23 27 24 22 19 20 28 27 11 20 27 18 23 28 24 25 18 21 27 24 25 22
22 22 22 19 28 24 28 30 32 29 28 30 25 24 28 27 20 33 23 26 23 28 27 27 21 18 16 16 16 16 19 23 21 18 22 21 23 28 22 26 25 24 20 26
24 24 26 24 30 29 32 37 37 37 32 32 23 31 28 25 26 26 26 29 23 27 33 23 21 18 15 18 19 20 23 27 32 35 23 25 26 24 31 28 32 25 26 31
30 31 33 33 33 36 38 40 5 31 41 37 39 32 30 31 27 23 27 30 27 26 22 24 20 17 17 22 22 22 22 24 21 21 24 27 28 26 33 36 35 26 29 30
30 31 37 33 32 40 41 31 41 53 42 29 34 26 28 28 25 26 29 31 28 28 28 25 24 22 24 22 23 21 21 24 26 25 25 28 34 36 34 43 37 34 37 40
30 31 32 35 35 38 34 38 39 26 46 42 23 30 35 34 34 34 35 34 35 35 32 27 35 35 36 29 28 24 23 27 28 31 34 36 39 39 41 45 48 46 43 46
27 25 29 35 38 37 44 36 39 33 24 25 29 49 44 40 37 37 35 31 46 36 30 28 38 41 39 35 28 29 28 29 31 35 38 39 41 42 45 49 53 58 53 47
45 30 38 42 34 40 41 38 37 45 42 38 47 38 45 41 35 37 36 37 36 40 34 36 35 31 29 26 29 33 29 29 31 33 40 44 46 50 47 53 61 58 57 53
60 48 45 53 46 47 41 39 31 46 35 42 45 61 41 46 51 48 43 42 34 33 40 40 41 41 39 40 31 29 33 35 36 39 44 44 43 46 51 55 60 67 73 79
53 52 52 61 50 47 38 33 32 29 39 34 39 48 32 47 34 37 46 48 44 46 29 40 41 44 44 39 39 40 38 39 43 44 44 49 55 58 60 62 67 74 69 63
57 47 46 43 44 43 35 33 38 45 42 42 45 61 50 36 34 38 49 40 45 48 43 59 44 44 44 42 40 37 35 41 40 47 48 44 43 47 57 54 39 31 29 33
24 6 23 34 50 36 30 29 35 38 40 36 31 21 46 40 49 45 39 29 26 37 37 45 45 43 45 37 28 32 41 39 35 29 25 25 28 34 30 25 24 27 25 22
5 11 25 32 30 33 22 20 20 16 16 20 38 42 39 43 47 30 13 24 26 33 38 22 16 40 30 28 33 33 23 14 10 19 26 28 25 19 24 29 30 29 26 22
28 28 38 36 25 21 18 19 24 26 24 29 33 47 25 30 29 42 26 34 18 16 27 25 14 24 30 16 10 14 21 24 26 28 30 31 30 27 24 19 18 17 15 13
Wind_Direction_850mb
321 307 325 19 5 2 331 8 310 332 332 7 12 352 347 339 3 53 91 103 96 99 107 114 126 139 145 150 166 207 223 184 169 152 196 213 206 191 197 192 164 129 182 197
311 305 263 87 39 348 345 11 354 345 18 10 8 15 12 1 52 123 114 125 118 118 130 127 126 130 148 203 226 149 144 140 142 175 129 94 124 165 198 212 205 204 209 208
304 332 312 50 348 1 348 358 338 1 12 357 18 15 15 13 104 133 118 118 126 140 149 143 151 185 223 146 147 142 169 184 212 186 171 184 237 270 225 215 226 228 226 237
289 324 340 349 204 337 315 320 324 326 337 353 343 27 21 34 30 149 146 137 143 150 148 163 204 160 146 160 165 176 154 193 210 200 250 203 225 261 270 238 245 256 261 255
282 317 227 180 360 11 357 316 1 324 317 317 291 298 43 38 92 113 130 135 132 132 139 153 172 144 204 191 166 186 191 212 207 206 207 211 219 238 243 263 270 264 258 245
281 271 357 147 56 116 112 312 37 344 344 342 2 228 149 103 118 139 137 133 131 151 181 179 151 206 193 186 204 201 202 204 205 200 209 217 230 240 249 253 262 256 264 272
317 292 119 79 18 156 283 0 50 331 310 42 21 35 128 133 135 134 135 133 160 169 145 163 181 185 186 197 196 185 192 190 205 219 221 231 236 244 253 257 258 257 257 258
306 313 299 71 344 316 56 340 322 301 331 346 132 146 151 166 178 218 239 224 167 165 177 191 201 206 242 205 199 196 203 206 208 223 237 252 254 257 261 268 270 274 275 277
319 270 265 194 178 199 210 228 282 281 317 316 174 181 177 174 178 173 170 178 190 200 204 218 197 215 232 227 206 209 212 209 224 239 247 252 265 276 281 282 283 283 286 285
260 263 281 232 213 208 220 227 227 280 323 312 281 178 183 193 197 208 206 202 198 212 216 218 225 224 216 195 202 204 217 233 244 258 271 278 277 279 280 279 281 286 287 290
292 284 300 20 231 238 210 214 234 237 243 212 216 175 182 186 192 193 193 201 201 204 208 216 214 219 229 217 220 228 245 259 262 267 275 280 275 283 287 280 282 283 281 297
259 280 150 272 209 210 203 235 215 235 215 210 221 217 204 213 189 185 185 183 186 196 208 212 212 220 228 230 238 238 241 255 268 281 284 280 287 279 279 264 277 281 289 307
261 272 257 277 282 264 251 215 228 220 223 215 226 235 230 212 200 206 200 200 197 205 218 224 227 231 234 242 248 245 259 268 275 284 285 292 288 285 277 280 289 292 279 289
285 256 256 247 249 256 232 225 225 223 230 235 234 239 252 230 261 225 220 212 219 218 229 236 251 228 216 233 247 284 262 259 289 276 276 270 284 274 276 268 268 270 271 271
270 278 273 264 269 240 232 223 228 224 231 236 254 260 222 243 245 225 230 230 247 236 233 236 245 248 238 253 242 263 266 277 280 266 271 279 269 275 270 266 263 271 253 264
256 264 259 245 249 254 240 226 221 232 237 242 241 244 242 227 226 237 245 237 227 244 221 241 251 250 247 257 257 254 261 261 262 276 271 262 263 255 259 256 258 250 263 273
276 272 268 250 245 246 249 244 332 314 234 236 243 245 217 238 230 226 218 231 223 231 241 243 232 243 251 244 247 256 258 269 265 276 276 264 273 271 267 262 260 262 268 260
263 266 268 258 251 258 267 276 240 272 281 247 241 226 218 222 227 219 220 226 235 237 235 226 236 241 239 243 255 258 256 258 267 264 271 267 268 261 267 273 268 262 263 266
265 266 268 266 258 260 253 253 241 262 236 239 238 223 220 223 229 221 214 236 237 239 224 237 236 239 239 236 245 252 259 262 265 269 272 271 270 273 270 271 267 262 264 267
325 287 265 271 272 272 267 264 225 235 239 251 198 237 221 225 226 230 238 236 220 230 235 238 241 237 247 258 251 249 257 264 269 275 278 278 279 279 273 271 266 264 258 260
329 289 294 323 290 284 287 270 260 242 250 229 246 242 228 221 232 236 239 240 239 243 251 238 239 226 237 247 250 251 248 259 265 271 277 282 285 287 288 283 279 276 279 269
314 303 262 294 306 292 285 281 265 228 236 258 272 238 239 230 230 239 241 247 246 254 244 232 241 248 237 234 243 247 250 258 266 273 280 284 282 281 283 283 283 283 277 270
298 289 271 260 281 295 283 282 279 254 254 226 224 235 237 230 230 243 238 236 238 247 247 234 244 246 247 244 245 245 251 263 271 272 273 274 276 283 291 297 301 301 285 273
302 284 262 237 274 285 279 286 283 276 270 243 260 262 239 243 242 243 258 253 264 234 273 230 241 247 254 254 251 252 263 263 262 261 264 274 290 302 309 316 325 334 332 311
312 192 204 270 288 280 283 284 287 276 255 248 234 231 210 236 241 254 261 255 267 243 245 230 240 249 251 248 234 238 244 250 256 272 299 325 335 336 330 341 4 16 14 19
221 281 299 291 300 269 280 290 294 254 245 233 232 239 228 226 232 265 278 240 267 245 225 245 231 229 217 214 218 223 227 251 332 7 1 360 4 20 30 29 22 16 12 6
341 301 311 313 320 317 269 258 270 267 260 257 261 261 255 241 243 259 286 298 274 227 210 235 239 213 208 205 15 43 17 15 35 47 48 40 33 24 21 11 5 357 353 2